Location: Beddau
(51.5575°N, 3.3561°W)
Time: 14:02:38
(UTC+00:00)

ERBS - Pass Details

Date: 03 March 2021
Orbit: 408 x 413 km, 57.0° (Epoch: 11 April)

Event Time Altitude Azimuth Distance (km) Brightness Sun altitude
Rises 18:55:44 0° 241° (WSW) 2,346 7.2 -9.8°
Reaches altitude 10° 18:57:48 10° 243° (WSW) 1,485 6.1 -10.2°
Maximum altitude 19:01:08 82° 331° (NNW) 423 2.3 -10.7°
Enters shadow 19:04:00 13° 59° (ENE) 1,300 4.2 -11.1°
